Temp
19 19 20 20 20 21 21 22 22 23 23 23 24 24 25 26 26 28 29 29 29 28 27 27 25 23 22 22 23 23 22 22 25 27 27 30 27 28 28 25 25 25 26 26 23
19 19 20 20 20 21 21 21 22 22 23 23 24 24 25 25 27 29 29 29 29 28 27 27 26 24 22 23 23 23 20 23 25 27 28 30 28 29 27 25 26 25 25 24 22
19 19 19 20 20 21 21 21 22 22 22 23 24 24 24 25 26 29 29 29 29 28 27 27 26 25 22 25 25 25 23 26 28 29 31 29 29 29 26 25 26 25 25 24 23
18 18 19 19 20 20 21 21 21 22 22 22 23 24 24 25 25 28 29 28 28 28 27 26 26 25 24 25 28 26 27 28 29 30 30 29 30 28 28 29 30 28 26 24 23
17 17 18 18 19 19 20 21 21 21 22 22 23 23 23 23 26 28 28 28 27 28 28 27 27 26 25 26 27 26 27 29 30 31 30 30 28 28 28 30 30 28 25 24 24
17 17 17 18 18 19 20 20 21 21 22 22 22 22 21 21 27 27 27 27 27 27 27 27 27 27 26 26 26 28 28 28 30 31 30 28 28 29 30 29 27 27 26 24 24
16 16 17 17 18 19 20 20 21 21 21 22 22 21 21 24 27 27 27 27 27 26 26 27 27 26 26 26 28 28 27 26 28 29 28 31 27 26 30 28 26 25 26 25 25
15 15 16 16 17 18 19 21 21 21 22 22 22 21 20 25 25 26 27 28 27 27 27 27 26 25 26 27 27 27 24 24 27 27 30 30 26 29 31 27 25 25 24 25 25
14 14 15 16 16 17 19 20 20 21 21 22 22 20 21 24 24 26 25 25 26 26 27 26 25 26 26 24 22 21 23 24 25 28 28 28 26 29 29 27 25 25 24 24 24
14 14 15 16 16 17 19 19 20 20 21 21 19 19 22 24 23 24 24 25 25 26 25 24 25 22 20 21 21 22 23 22 23 26 26 26 26 28 28 27 26 25 24 24 24
13 14 15 16 16 18 19 19 19 19 21 18 20 18 21 24 23 23 24 24 24 24 21 24 21 20 22 21 24 23 24 23 24 26 27 26 25 27 28 27 27 26 25 25 25
12 13 14 15 16 17 18 17 15 13 13 20 20 20 22 21 20 25 24 23 23 21 22 22 21 23 24 23 24 23 23 22 23 26 25 24 25 25 26 27 27 26 25 25 26
12 13 14 15 16 17 17 16 16 16 16 19 21 20 23 22 20 23 23 24 22 22 22 23 24 25 25 24 24 23 22 23 23 25 25 25 24 25 26 28 28 27 27 27 28
12 13 14 15 16 17 17 17 17 18 13 17 21 23 23 23 21 25 25 23 23 22 21 22 25 25 25 24 24 21 24 25 25 24 24 25 22 23 26 24 25 28 27 27 28
12 13 13 14 15 16 17 18 18 18 16 22 22 24 23 22 25 24 25 23 22 23 23 22 24 23 24 25 25 24 25 24 24 23 23 24 21 22 24 25 25 26 27 30 31
13 13 13 14 16 16 17 18 18 14 16 20 22 21 20 22 23 24 25 25 25 23 23 22 26 25 25 26 25 26 26 22 19 19 20 22 21 22 24 25 26 27 31 30 28
14 14 14 16 17 17 17 18 13 14 18 19 19 19 18 21 21 23 23 23 21 21 21 23 24 26 26 26 25 26 21 20 20 19 21 21 22 22 24 26 25 27 30 31 28
14 15 17 18 17 17 17 14 16 17 17 19 19 18 20 20 21 21 21 21 21 23 20 21 21 24 26 24 24 22 20 18 21 20 23 20 21 24 26 26 28 29 31 30 27
14 16 17 18 17 17 17 12 14 15 18 18 17 18 18 20 20 19 19 21 22 23 23 20 21 26 26 26 25 25 22 22 21 19 19 20 22 24 25 24 24 24 27 28 27
14 16 17 17 17 16 12 12 14 16 18 19 17 19 17 19 19 18 19 22 21 23 23 23 21 24 25 26 26 25 24 24 19 22 22 20 22 21 23 23 22 23 24 26 27
13 16 17 17 16 16 11 11 14 18 18 18 18 18 18 19 19 19 20 21 22 22 21 22 19 22 24 23 23 24 23 22 20 18 20 20 20 20 23 21 20 19 20 22 23
13 10 16 16 14 9 11 13 18 18 20 17 18 17 18 19 19 20 20 21 24 22 21 21 17 19 23 24 25 24 23 23 22 21 16 18 20 21 21 21 21 21 20 21 20
11 12 15 15 11 10 12 15 17 17 18 19 19 20 20 20 19 20 20 22 22 22 21 21 17 17 19 22 24 25 25 22 19 17 18 20 21 20 20 21 22 21 22 22 23
10 8 15 15 14 13 13 13 15 18 18 18 18 18 17 18 18 18 18 21 21 22 22 20 16 18 18 20 21 20 23 23 20 19 18 19 22 22 20 20 19 22 26 27 26
10 9 11 9 11 11 12 13 14 14 18 18 17 17 17 17 15 16 17 17 20 22 21 18 19 16 18 19 20 22 22 23 21 20 21 22 21 20 17 15 16 20 20 24 26
10 10 11 10 11 11 10 12 14 14 16 16 16 16 16 16 16 14 16 16 17 18 18 15 18 17 17 21 21 22 20 21 19 18 20 19 18 15 16 16 15 15 16 18 19
9 9 10 10 8 10 11 12 13 13 16 16 15 15 16 16 16 15 16 16 16 16 16 18 18 19 19 19 19 19 18 18 16 17 16 18 16 16 15 15 14 14 14 15 17
Height
1537 1534 1532 1530 1528 1525 1523 1521 1518 1516 1513 1511 1510 1508 1505 1503 1501 1498 1494 1494 1494 1495 1497 1499 1500 1504 1506 1507 1508 1508 1513 1518 1508 1501 1492 1487 1486 1483 1483 1482 1485 1485 1485 1485 1493
1537 1534 1531 1528 1525 1523 1521 1519 1516 1514 1511 1509 1507 1505 1503 1500 1497 1493 1493 1490 1491 1493 1494 1497 1498 1502 1505 1504 1505 1506 1515 1506 1491 1489 1487 1481 1486 1481 1482 1482 1483 1484 1486 1484 1490
1536 1533 1530 1527 1524 1520 1518 1515 1513 1511 1509 1507 1505 1503 1501 1498 1495 1492 1491 1491 1491 1493 1494 1496 1498 1499 1502 1502 1499 1497 1502 1491 1485 1482 1479 1477 1481 1482 1478 1483 1475 1476 1481 1481 1487
1535 1532 1529 1526 1522 1519 1515 1512 1510 1507 1506 1503 1501 1500 1499 1498 1501 1490 1490 1492 1492 1492 1493 1494 1497 1498 1497 1496 1491 1494 1489 1486 1479 1478 1472 1470 1473 1477 1475 1467 1468 1474 1477 1475 1481
1534 1530 1527 1523 1520 1516 1513 1510 1507 1504 1502 1500 1498 1497 1497 1496 1489 1490 1489 1489 1490 1490 1490 1491 1491 1491 1491 1490 1489 1488 1483 1480 1476 1472 1472 1468 1467 1474 1472 1469 1469 1472 1477 1479 1476
1532 1528 1525 1521 1517 1513 1509 1506 1503 1500 1498 1496 1494 1493 1494 1493 1486 1485 1485 1486 1487 1488 1488 1487 1486 1486 1485 1484 1485 1479 1478 1474 1472 1467 1469 1468 1469 1470 1465 1469 1472 1471 1472 1476 1478
1531 1527 1523 1518 1513 1508 1504 1502 1499 1495 1492 1491 1490 1489 1489 1479 1482 1482 1482 1481 1484 1484 1482 1483 1485 1486 1483 1481 1479 1477 1478 1470 1466 1468 1471 1465 1472 1471 1464 1466 1466 1470 1468 1470 1475
1529 1525 1521 1517 1512 1506 1501 1497 1493 1488 1486 1485 1485 1483 1477 1476 1476 1476 1477 1475 1478 1478 1479 1480 1481 1483 1483 1478 1476 1478 1482 1492 1467 1463 1462 1462 1479 1453 1457 1458 1463 1464 1466 1466 1471
1527 1523 1518 1513 1507 1501 1497 1493 1489 1485 1482 1481 1481 1480 1474 1470 1468 1471 1472 1471 1471 1474 1475 1478 1478 1477 1479 1483 1489 1488 1497 1490 1477 1464 1468 1471 1473 1451 1450 1451 1453 1456 1461 1462 1469
1524 1520 1515 1511 1505 1499 1495 1491 1486 1483 1482 1479 1479 1482 1472 1468 1467 1467 1468 1468 1467 1468 1471 1476 1475 1475 1477 1488 1507 1495 1492 1488 1484 1461 1464 1468 1468 1454 1453 1454 1449 1453 1456 1459 1463
1521 1517 1512 1508 1503 1498 1494 1489 1488 1486 1482 1483 1478 1478 1470 1464 1466 1461 1463 1464 1464 1465 1468 1466 1473 1480 1476 1473 1473 1478 1481 1484 1471 1462 1469 1468 1467 1452 1449 1453 1450 1453 1453 1454 1453
1519 1515 1510 1507 1502 1498 1496 1495 1500 1502 1480 1470 1467 1467 1462 1463 1465 1453 1458 1460 1460 1464 1461 1467 1471 1464 1463 1468 1472 1475 1481 1481 1470 1459 1471 1467 1465 1451 1448 1443 1445 1445 1446 1448 1448
1517 1513 1508 1504 1501 1500 1497 1498 1498 1495 1492 1468 1466 1462 1459 1459 1455 1445 1451 1453 1454 1460 1462 1463 1459 1457 1461 1465 1472 1475 1480 1477 1478 1464 1463 1465 1469 1456 1441 1440 1442 1445 1443 1443 1443
1515 1511 1507 1503 1502 1499 1498 1498 1496 1494 1501 1480 1465 1463 1459 1457 1451 1438 1435 1446 1450 1456 1458 1458 1453 1456 1460 1464 1467 1483 1463 1464 1467 1477 1487 1461 1496 1462 1444 1441 1438 1437 1436 1434 1437
1514 1510 1507 1503 1501 1498 1498 1496 1494 1494 1519 1473 1467 1464 1460 1457 1446 1433 1432 1439 1445 1451 1453 1457 1451 1455 1460 1455 1458 1463 1454 1462 1463 1471 1474 1470 1490 1464 1446 1443 1433 1425 1426 1425 1424
1511 1508 1504 1502 1499 1498 1495 1494 1494 1508 1515 1480 1470 1466 1458 1451 1444 1438 1433 1435 1437 1444 1447 1449 1443 1444 1445 1444 1449 1446 1453 1463 1472 1480 1495 1469 1477 1466 1454 1440 1428 1421 1418 1417 1417
1508 1505 1501 1498 1497 1496 1495 1495 1510 1518 1489 1485 1480 1471 1467 1458 1447 1440 1438 1440 1448 1461 1460 1448 1444 1436 1438 1447 1447 1452 1471 1496 1503 1504 1496 1465 1469 1452 1432 1426 1423 1416 1413 1412 1412
1505 1502 1499 1496 1496 1496 1496 1498 1512 1499 1495 1483 1480 1472 1472 1459 1451 1446 1447 1449 1440 1442 1461 1465 1468 1440 1434 1442 1452 1457 1469 1501 1504 1507 1484 1470 1474 1441 1418 1412 1411 1408 1406 1409 1412
1503 1500 1498 1498 1497 1497 1498 1514 1509 1501 1490 1489 1482 1480 1477 1465 1462 1454 1454 1449 1443 1442 1455 1464 1459 1432 1432 1431 1438 1449 1466 1452 1475 1485 1493 1476 1452 1423 1413 1409 1406 1399 1401 1405 1409
1503 1500 1498 1499 1498 1498 1501 1510 1503 1494 1490 1487 1492 1481 1488 1473 1470 1466 1462 1448 1449 1442 1441 1443 1457 1436 1430 1427 1429 1438 1439 1461 1475 1484 1491 1480 1465 1456 1425 1416 1409 1404 1398 1402 1408
1504 1500 1500 1500 1500 1500 1510 1509 1498 1490 1489 1487 1484 1484 1480 1475 1470 1468 1465 1452 1448 1441 1439 1439 1449 1446 1428 1436 1440 1440 1445 1450 1458 1477 1487 1490 1470 1426 1420 1415 1412 1414 1407 1408 1412
1505 1504 1500 1501 1504 1505 1507 1500 1494 1485 1480 1479 1476 1475 1475 1470 1470 1465 1465 1457 1450 1447 1448 1442 1455 1460 1439 1419 1419 1424 1433 1437 1464 1471 1480 1477 1461 1417 1415 1412 1409 1416 1417 1414 1417
1506 1503 1502 1503 1509 1508 1501 1497 1492 1487 1481 1477 1476 1473 1470 1469 1474 1466 1463 1454 1450 1447 1450 1442 1458 1471 1453 1431 1424 1426 1419 1428 1443 1461 1465 1472 1455 1421 1414 1409 1413 1412 1419 1419 1420
1508 1507 1502 1502 1502 1502 1503 1498 1494 1485 1481 1479 1476 1473 1474 1472 1470 1470 1466 1455 1452 1448 1443 1441 1461 1465 1476 1457 1439 1443 1424 1420 1431 1457 1458 1457 1438 1424 1421 1414 1412 1408 1405 1413 1419
1510 1509 1509 1508 1504 1504 1504 1500 1495 1492 1481 1478 1475 1477 1478 1479 1480 1476 1466 1458 1449 1447 1446 1448 1457 1461 1451 1443 1440 1428 1423 1417 1427 1437 1444 1435 1436 1433 1432 1436 1433 1425 1422 1407 1408
1511 1511 1509 1507 1505 1505 1502 1500 1496 1492 1485 1482 1482 1477 1475 1480 1481 1480 1471 1465 1461 1448 1451 1451 1457 1455 1454 1434 1435 1432 1423 1421 1423 1430 1430 1438 1439 1434 1433 1431 1431 1429 1429 1428 1424
1510 1510 1510 1506 1505 1505 1503 1499 1496 1494 1486 1484 1482 1478 1476 1473 1471 1465 1462 1458 1455 1456 1453 1453 1455 1455 1461 1443 1436 1446 1438 1435 1436 1435 1433 1444 1446 1441 1436 1436 1435 1435 1434 1439 1442
Wind_Speed
18 18 18 18 18 18 18 18 17 17 18 19 19 19 19 19 17 18 18 11 8 10 8 8 12 13 14 7 9 3 2 3 4 4 6 7 5 15 9 22 13 16 13 9 31
18 19 20 21 21 20 19 19 19 19 19 19 19 18 20 22 20 14 2 4 9 10 10 9 9 15 7 6 7 7 4 7 8 9 9 15 10 16 9 14 8 18 13 25 32
17 18 19 20 21 22 22 21 20 20 20 20 19 19 19 19 19 3 7 2 5 6 7 6 4 13 12 10 9 8 5 8 16 18 17 18 16 10 11 5 15 27 30 39 37
19 19 19 20 20 21 21 22 22 21 21 21 21 19 18 15 5 8 4 7 8 10 12 11 10 8 6 7 10 4 10 17 11 14 15 8 26 8 20 17 27 27 37 43 40
21 21 22 23 23 23 22 21 21 22 21 21 21 21 17 9 20 16 21 16 11 14 15 17 14 12 5 5 5 7 5 8 20 29 15 14 18 8 21 14 17 29 38 42 42
22 23 24 24 25 25 25 24 22 22 21 20 21 20 15 8 11 9 10 4 9 14 18 20 13 16 7 5 3 7 11 12 20 30 8 6 7 11 22 18 20 34 38 40 42
22 24 25 26 27 28 27 26 23 23 21 20 20 20 18 32 16 18 17 20 20 17 16 18 17 11 3 4 4 7 8 9 9 4 2 11 3 10 26 29 30 36 39 40 40
24 25 26 27 28 28 27 26 24 22 22 20 20 20 16 28 28 27 26 30 26 24 24 14 10 12 10 8 3 2 4 5 4 10 7 11 9 19 19 36 32 36 38 42 42
25 27 28 29 31 31 28 25 18 14 11 12 10 10 13 16 20 21 16 22 24 25 23 15 8 8 7 1 4 5 4 5 12 7 1 5 13 18 12 38 34 36 36 40 39
25 26 27 27 29 29 24 19 15 2 11 7 5 6 11 14 15 11 15 16 18 19 20 13 8 3 3 4 7 7 5 5 7 6 8 12 12 9 19 23 30 34 34 36 39
25 27 28 27 31 23 17 15 16 4 18 12 27 28 40 27 32 31 17 14 18 11 7 9 5 7 11 10 4 5 4 7 9 10 2 12 12 20 14 20 23 24 28 36 45
25 26 28 27 29 13 20 8 12 11 18 31 22 27 31 34 21 34 25 8 6 10 5 5 9 8 8 5 7 5 5 9 8 14 6 10 14 11 6 23 24 29 31 38 46
26 27 29 26 18 16 12 13 13 16 5 15 10 12 11 6 14 36 21 7 5 5 7 16 10 8 5 6 6 6 6 11 10 10 6 7 7 7 6 11 21 29 38 42 47
26 27 28 27 10 21 4 11 11 10 5 7 7 3 9 14 8 20 26 23 7 9 9 13 11 9 5 8 7 8 9 12 11 2 9 5 7 6 6 8 7 21 33 41 46
25 25 23 25 23 17 9 12 8 1 3 3 5 9 35 6 18 7 9 21 16 9 4 8 9 9 13 20 6 13 4 8 9 6 1 3 2 7 4 9 10 10 20 36 39
23 21 25 24 19 11 12 10 3 5 4 6 7 13 13 6 6 7 3 12 16 5 3 9 16 8 12 10 9 8 3 6 5 2 3 6 7 5 5 8 6 7 21 21 31
21 20 23 20 13 9 7 5 5 3 5 7 6 13 8 10 9 4 1 4 5 5 3 5 6 4 7 3 2 4 6 5 5 3 8 7 3 8 4 7 12 15 27 24 26
21 20 15 8 3 4 3 5 2 2 5 5 6 11 5 11 8 8 6 3 3 4 2 4 8 6 3 8 9 6 9 6 5 6 10 1 6 7 8 15 21 28 31 24 25
22 15 3 3 3 2 1 4 5 4 4 7 10 4 6 6 2 9 8 8 7 2 2 4 8 5 3 6 9 6 5 7 4 2 2 4 7 10 7 12 8 17 21 25 27
23 13 5 1 2 2 5 3 3 4 7 2 3 2 6 7 8 9 10 5 11 6 1 6 2 3 5 3 6 7 6 1 1 2 4 5 5 6 11 10 10 4 14 20 26
20 6 2 4 3 2 2 5 6 13 10 4 6 4 7 4 2 5 6 7 7 9 6 2 5 8 3 6 8 0 3 2 6 4 5 4 7 7 6 6 6 7 16 15 17
9 3 1 10 2 2 1 4 8 13 19 7 5 7 5 3 4 2 3 4 17 7 6 3 4 3 8 10 8 7 9 6 5 6 3 3 7 3 5 3 10 16 16 19 15
13 5 3 12 0 2 5 5 6 4 7 6 4 3 3 2 4 2 6 10 18 7 5 4 3 4 10 8 7 3 5 6 6 3 6 5 8 4 5 7 12 25 22 20 18
5 3 2 4 2 2 4 5 5 13 6 6 4 6 6 4 3 4 7 5 22 12 7 6 3 4 4 9 6 7 6 8 8 4 3 6 8 2 5 6 5 10 36 27 21
2 2 2 3 2 4 3 3 6 6 3 8 5 5 2 3 7 6 4 8 14 3 4 3 2 4 8 14 9 10 13 9 7 6 5 4 5 5 4 8 13 15 14 24 28
1 4 6 6 9 5 3 4 3 7 4 7 4 9 4 4 4 6 2 3 6 7 7 3 3 2 6 11 3 9 17 8 8 3 3 6 4 6 13 21 20 25 31 28 9
1 4 3 4 4 1 2 3 4 10 1 13 5 3 4 4 12 22 22 19 13 4 2 3 3 8 13 9 6 4 10 7 3 6 5 2 2 4 13 14 19 27 35 36 24
Wind_Direction
347 345 343 342 339 337 335 333 331 328 325 325 327 326 322 319 316 305 293 277 263 226 200 179 183 189 187 209 222 261 23 263 246 260 248 222 243 179 183 143 163 201 185 184 172
342 340 339 337 335 333 332 330 328 325 322 320 320 322 322 322 318 315 348 237 227 222 201 195 198 193 195 213 214 197 154 231 220 222 260 207 220 181 159 164 197 189 195 167 176
338 336 333 331 328 326 325 325 322 321 320 319 317 317 320 323 325 143 69 148 180 210 230 240 232 200 214 210 205 205 215 249 271 271 334 216 215 216 146 211 201 182 172 171 177
344 341 336 331 325 320 318 317 316 316 314 313 312 313 315 318 299 175 176 357 245 212 226 231 212 208 208 201 222 220 247 262 285 299 333 220 206 207 185 212 204 191 178 171 181
347 344 340 337 331 326 320 313 310 308 306 307 307 309 315 294 264 275 282 279 242 233 235 233 217 209 209 216 259 209 238 270 309 315 310 274 197 183 231 242 206 182 177 182 184
347 344 342 339 334 328 323 319 316 306 298 297 297 297 299 269 282 288 277 252 252 258 266 246 235 231 261 246 175 280 288 291 316 305 305 165 210 183 235 220 187 182 185 189 191
344 342 340 339 334 328 322 321 320 309 298 288 291 292 277 256 264 282 265 271 277 264 280 268 261 240 187 304 292 297 335 329 293 310 204 259 112 215 234 202 184 192 192 196 197
339 338 337 335 332 327 326 323 317 307 300 291 285 281 257 278 275 264 265 273 269 254 262 271 252 245 246 259 341 348 50 343 280 334 336 20 291 308 265 185 186 193 197 200 203
335 336 336 337 334 328 328 333 326 324 322 312 289 262 276 269 268 273 276 279 285 268 254 260 244 227 266 218 3 358 233 260 304 151 341 70 302 302 234 185 190 192 201 204 206
330 333 334 338 337 329 333 336 326 249 3 313 1 307 268 284 287 260 292 298 301 263 240 242 214 207 92 117 228 210 201 247 247 306 -0 323 285 292 213 200 189 201 201 205 209
330 333 333 339 342 340 347 2 16 345 310 285 289 274 277 272 289 294 279 289 306 234 167 199 176 198 214 197 230 207 233 237 268 275 325 282 281 284 225 208 207 213 200 210 217
330 334 333 338 344 3 353 53 26 329 301 313 300 278 277 277 282 273 276 227 204 213 190 235 223 212 225 188 214 236 248 267 294 267 164 277 279 279 211 215 208 207 206 215 224
331 334 332 336 342 345 357 17 356 337 284 303 314 293 324 290 240 263 251 217 186 214 219 221 225 215 177 246 228 226 217 260 245 311 214 267 286 277 277 216 217 223 222 222 223
328 330 330 332 343 341 6 352 336 319 35 285 336 338 328 321 267 293 268 215 200 204 217 229 231 213 194 240 181 255 209 248 265 53 274 128 276 295 281 303 196 225 218 223 231
323 325 328 332 325 336 332 345 326 110 353 269 310 320 326 235 288 343 286 193 211 222 132 238 199 197 216 230 163 246 197 213 251 251 117 215 149 259 333 304 289 288 220 223 232
319 327 324 325 330 330 327 336 8 47 264 313 350 330 340 319 297 310 84 195 198 191 245 251 246 200 216 219 192 241 321 43 51 81 306 244 181 239 209 225 278 275 277 260 224
321 326 320 315 314 320 351 4 36 135 340 331 341 331 327 314 319 14 347 156 162 121 267 278 217 242 188 209 106 132 57 316 329 347 240 248 198 236 220 221 227 255 273 259 225
327 325 324 324 283 306 14 52 123 272 278 303 340 317 314 343 335 329 7 339 283 126 120 198 296 207 191 178 196 186 163 169 242 268 281 32 240 260 244 269 270 267 255 242 205
334 336 106 85 12 36 90 67 212 228 286 346 321 336 322 330 331 348 2 33 19 96 202 154 271 299 165 212 156 216 161 199 150 45 89 260 288 314 306 290 309 254 211 207 196
338 345 92 131 6 40 69 233 243 233 326 321 262 338 330 306 15 10 360 342 354 341 257 226 270 243 291 343 210 172 177 155 98 275 251 272 276 247 298 306 327 286 182 192 195
340 342 179 174 180 26 123 238 269 271 273 239 234 264 245 278 273 330 305 301 8 321 354 340 98 295 233 170 246 267 143 51 103 145 197 236 270 218 256 289 75 14 79 116 140
342 353 274 171 340 23 178 209 304 301 327 253 240 210 225 290 309 314 306 231 337 315 336 312 124 266 264 268 223 188 212 165 184 246 200 193 263 344 273 92 110 96 75 93 110
335 291 186 193 227 308 291 283 257 296 299 331 318 349 332 324 356 315 337 302 350 335 320 303 13 354 343 2 10 276 211 159 115 58 195 150 261 347 1 114 153 124 118 114 116
339 358 334 200 199 103 344 279 311 313 275 342 270 38 1 330 344 339 335 314 329 307 40 54 66 135 254 259 278 278 252 183 146 123 162 226 280 54 270 185 220 145 142 146 150
331 307 358 304 338 348 269 289 325 335 296 353 336 32 308 318 357 338 297 320 327 318 14 91 275 213 257 260 267 312 312 207 118 176 131 269 244 354 31 355 340 13 353 169 170
348 353 342 297 302 326 334 359 314 328 303 329 16 315 19 104 194 269 311 228 246 313 358 321 305 31 301 283 0 31 20 8 62 82 100 11 22 332 74 51 28 24 5 344 294
264 289 299 290 325 356 203 324 294 333 302 44 349 349 5 272 289 274 267 251 250 285 285 294 23 8 302 298 336 349 342 28 67 17 122 27 338 43 72 66 52 41 31 12 342